STARLINK-32639, 62153

Orbit data source: Space-Track

STARLINK-32639, 62153 is a payload satellite owned by SpaceX/Seattle (US) in LEO that was launched on Sat, 30 Nov 2024 UTC via an FALCON 9 launch vehicle from the Air Force Eastern Test Range (AFETR). Payload-class satellites include a variety of spacecraft equipped with specific instruments for various scientific and technological missions. These include communications satellites like Starlink; space stations such as the ISS; scientific satellites like the Hubble; Earth observation satellites from companies like Planet Labs, Umbra, and HawkEye 360; GPS; miniature CubeSats for education and research; and military/defense satellites.

Loading next visibility...
Identifier
62153, 2024-224Q
Orbit
LEO
Country
Flag of USUS
Related business
Manufacturer
SpaceX/Seattle
Mission
Operational Commercial Communications
Bus & Motor
STARLINK V2M, Unknown motor
Mass
730 kg wet, ~700 kg dry
Launch date (UTC)
2024-11-30 (2 years ago)
Launch vehicle
FALCON 9
Launch site
Air Force Eastern Test Range (AFETR)
Object type
Payload
Rocket body
Debris
Shape & HBR
Box + 2 Pan, 17.7 m
Radar Cross Section
33.884 m², Large (>1 m²)

Expand to show TLE details & history
Last TLE update: 11 hours ago

TLE from 11 hours ago
0 STARLINK-32639
1 62153U 24224Q   26171.38513015  .00014147  00000-0  52245-3 0  9992
2 62153  43.0017 298.3302 0001939 270.5704  89.4925 15.27589552 88022
Epoch: 2026-06-20T09:14Z
TLE epoch observation values (Epoch: 2026-06-20T09:14:35.244Z)
Latitude
-0.00007°
Longitude
-108.91724°
Altitude
482.785 km
Speed
7.626 km/s
True Right ascension
19h 53m 19s
True Declination
0° 00' 00"
Sunlit
Object was in full shadow at epoch
Visualization orbit readout
Latitude
Unknown
Longitude
Unknown
Altitude
Unknown
Speed
Unknown
Apparent Right ascension
Unknown
Apparent Declination
Unknown
Sunlit
N/A
Visualization observer readout
Local Sidereal Time
07:21:24
Azimuth
Unknown
Elevation
Unknown
Doppler factor
Unknown
Orbital elements
Apogee altitude
486.296 km
Perigee altitude
483.635 km
Semi-major axis
6,863.102 km
Eccentricity
0.00019
Inclination
43.0017°
RAAN
298.3302°
Arg. of periapsis
270.5704°
True anomaly
89.51472°
Mean anomaly
89.4925°
Eccentric anomaly
89.50361°
Mean motion
3.81735 °/min
Orbital period
94.31 mins
BSTAR
0.00052245
Loading maneuver chart data...
Computing Atmospheric mass density...
Loading historical data...
Loading historical data...
Loading historical data...
Loading historical data...
Loading historical data...
Loading historical data...
Loading historical data...

Documentation

Showing up to 5 results
|